Wind_Speed
27 26 22 22 17 12 12 16 6 18 11 17 17 19 18 18 19 17 17 19 20 20 20 21 21 20 19 19 18 16 14 11 10 10 11 12 14 16 17 18 19 20 20 20
26 24 19 18 19 13 19 17 12 14 18 14 16 18 17 20 18 18 20 22 21 21 21 21 21 19 18 17 16 14 13 11 10 11 12 14 15 16 18 19 19 20 22 23
25 21 17 18 20 16 12 15 17 10 14 14 13 18 18 19 19 20 22 21 20 19 20 20 18 17 16 16 14 13 12 11 12 13 14 15 17 19 19 19 20 22 23 24
15 17 16 18 19 12 10 10 18 15 10 7 11 6 9 14 15 17 19 19 17 18 17 16 15 15 15 14 12 12 11 11 13 14 15 16 18 19 18 19 21 23 24 24
11 10 15 16 16 12 8 10 13 11 10 11 13 8 11 17 18 19 18 16 16 14 11 11 12 14 12 11 11 11 12 13 14 15 16 17 19 18 19 21 22 24 25 24
11 9 12 13 16 14 9 10 10 11 9 5 14 13 8 14 15 15 15 12 8 8 9 11 11 11 11 11 11 12 13 14 15 16 18 19 18 19 21 22 24 25 25 24
12 14 14 14 15 15 13 10 1 2 1 5 7 9 19 11 12 12 11 10 10 9 9 9 9 9 9 10 12 12 13 15 17 18 19 19 20 21 22 23 23 24 23 22
8 8 14 14 15 12 16 13 4 6 3 3 7 8 5 10 13 13 10 8 9 8 8 7 5 7 9 11 12 13 16 18 20 21 21 21 22 23 23 24 24 23 22 21
7 5 17 11 16 13 10 11 11 2 2 2 6 8 11 11 13 13 10 7 8 10 7 6 7 7 9 12 14 16 19 20 22 22 22 23 23 23 24 24 23 23 23 22
6 5 9 15 12 14 10 8 6 6 2 4 5 7 12 7 10 6 4 5 9 10 9 9 8 11 15 19 21 21 22 23 23 24 25 25 25 25 25 24 24 25 25 24
4 4 5 8 11 12 14 14 9 5 4 4 1 4 8 9 9 7 9 14 15 16 14 12 15 20 22 25 23 22 22 23 24 26 27 28 28 27 26 26 26 27 27 25
7 4 5 8 9 12 15 15 15 7 5 7 3 8 12 13 12 14 17 14 12 13 15 19 24 27 27 24 21 21 22 24 26 28 30 30 30 29 29 30 30 31 31 30
8 7 4 3 10 15 17 19 19 19 13 12 4 7 10 12 13 15 15 13 13 18 24 27 27 31 31 24 22 22 24 26 27 28 29 30 30 31 31 32 33 34 33 33
6 9 8 5 2 2 6 8 17 20 12 12 23 22 19 19 16 17 16 17 22 24 27 30 31 28 26 26 28 29 29 30 29 28 27 28 30 32 33 35 36 37 37 37
8 10 13 14 15 17 18 19 19 24 27 26 31 28 25 23 23 22 22 25 29 31 29 26 26 27 27 27 27 28 29 30 30 29 26 25 28 31 34 36 38 39 42 45
11 10 13 15 15 18 24 24 26 29 31 35 36 35 31 28 27 32 35 30 25 28 29 27 26 26 23 23 24 25 27 28 28 28 28 30 32 34 37 40 43 46 47 49
12 11 8 5 8 11 17 21 24 27 29 29 31 27 27 28 28 28 27 25 23 23 24 23 23 25 26 26 25 24 24 26 28 32 36 39 42 46 49 50 51 53 53 52
16 12 9 7 10 3 9 10 9 12 15 15 18 20 21 23 23 23 24 25 24 22 24 26 29 30 30 30 30 31 33 35 38 41 43 46 47 48 50 52 52 52 53 54
20 17 8 6 7 16 17 18 19 20 21 19 19 20 20 21 22 25 24 21 30 34 34 34 36 38 37 36 36 36 37 39 40 42 43 44 46 47 48 48 49 49 50 51
15 18 17 10 5 6 3 8 11 12 20 22 18 16 18 20 22 21 25 34 37 37 39 40 40 40 39 37 38 37 37 38 38 40 42 43 44 46 47 47 47 48 48 49
15 16 22 23 12 11 17 19 19 12 13 9 9 12 14 18 23 27 35 35 34 38 40 38 35 34 33 33 35 38 40 41 43 44 45 46 46 46 46 46 46 45 46 47
13 8 8 11 10 12 13 13 13 13 16 18 21 25 28 30 33 36 40 32 33 32 33 32 31 31 32 34 37 40 42 44 46 48 49 49 47 47 47 46 46 46 46 47
16 19 15 15 8 13 16 18 26 29 28 30 32 29 29 32 33 34 34 29 26 25 26 27 31 33 36 39 41 44 47 49 49 49 48 46 44 44 44 44 45 45 44 42
22 21 24 26 25 27 30 31 33 37 35 34 34 33 34 37 32 27 24 21 21 22 25 29 33 37 40 41 44 47 48 46 45 44 44 43 42 41 41 41 41 40 39 41
22 25 29 33 34 38 39 36 35 35 31 31 33 33 27 29 25 20 20 21 24 27 31 35 39 42 44 46 48 48 45 43 43 43 42 41 40 41 41 41 41 42 43 43
33 29 28 32 23 26 27 26 27 30 34 34 37 28 21 17 19 21 23 26 31 35 38 42 45 47 49 49 50 47 43 41 40 40 39 37 38 40 41 42 43 42 43 43
Wind_Direction
177 178 182 185 181 191 199 203 226 215 215 220 233 236 239 242 245 252 260 264 269 275 282 286 289 290 289 285 278 277 278 280 279 288 295 297 303 307 312 319 322 323 326 325
177 184 187 190 193 193 199 211 233 214 218 226 238 242 234 241 249 253 255 261 271 275 278 286 288 288 284 276 273 274 277 275 277 283 288 293 299 308 318 322 324 327 326 326
181 182 189 191 192 207 221 227 215 213 216 236 256 258 239 243 249 253 256 260 268 278 283 284 281 279 274 272 272 273 271 272 278 283 289 296 306 313 317 319 326 328 328 325
172 181 189 191 195 205 230 212 209 224 219 240 243 275 230 230 240 246 245 252 263 274 275 275 273 272 273 273 274 273 273 274 276 282 289 296 304 310 311 316 321 324 326 324
173 172 191 196 199 203 210 182 190 211 230 249 249 257 247 243 247 251 254 260 271 268 267 270 273 275 278 277 278 277 276 277 281 285 289 295 301 305 311 316 321 324 325 322
170 177 185 197 204 208 214 203 215 230 237 258 237 225 248 240 246 243 250 257 261 266 272 271 273 276 274 274 276 276 277 279 279 281 287 294 298 304 310 316 320 322 320 316
151 176 181 188 200 207 207 198 191 304 244 216 221 227 238 244 245 246 246 261 266 266 264 262 262 266 275 275 273 274 275 275 276 280 285 291 297 305 308 311 315 319 316 313
159 173 184 192 198 203 207 205 218 204 197 250 219 236 245 239 250 258 258 268 274 266 264 259 271 279 282 284 287 285 281 280 281 282 285 290 296 300 302 305 309 315 313 307
164 159 190 196 204 204 212 219 228 250 268 302 237 262 253 245 255 262 272 257 254 255 256 277 287 297 299 296 290 281 276 275 276 278 281 286 291 295 298 300 305 308 307 300
167 142 189 209 208 214 215 212 209 217 168 253 275 266 245 245 239 257 253 238 246 247 239 240 267 292 300 297 286 279 276 276 278 280 283 286 289 290 291 293 297 300 302 299
181 188 180 201 219 225 224 222 223 224 228 178 280 251 233 231 234 227 251 263 257 255 246 260 287 299 308 306 286 274 274 275 277 280 282 284 283 283 284 286 290 294 296 294
210 212 207 221 224 223 226 229 226 225 220 220 239 266 252 243 245 266 274 266 264 257 260 277 293 299 298 300 288 276 272 273 275 279 280 280 280 280 282 285 287 290 291 291
201 212 188 235 243 239 234 235 234 232 244 239 179 253 257 258 259 260 257 257 266 275 281 285 289 296 297 288 286 278 272 275 279 281 280 278 277 278 280 281 283 286 288 289
225 234 231 235 274 225 223 246 235 232 238 242 246 258 271 274 257 256 249 260 275 283 288 290 291 292 290 288 288 284 281 283 286 287 283 279 276 276 278 281 285 288 289 290
240 254 258 261 264 265 262 259 253 249 258 249 274 275 281 277 268 255 263 275 283 289 290 288 288 287 284 281 276 274 274 276 280 285 288 285 279 278 280 282 284 286 290 293
249 260 265 272 263 262 266 263 258 257 257 258 261 268 269 272 263 271 279 283 284 288 289 290 290 289 289 291 289 282 278 273 269 268 271 273 275 277 280 283 285 287 287 288
255 258 274 266 262 271 278 273 259 264 268 272 267 282 275 274 277 278 284 287 289 291 292 289 289 290 288 285 282 282 283 283 282 283 282 282 283 284 285 285 285 285 285 284
256 257 259 266 277 226 254 244 248 252 258 267 273 274 276 277 283 288 290 293 297 299 298 294 291 286 281 278 276 278 282 286 288 288 287 287 288 288 289 288 288 285 284 285
256 253 247 252 242 278 265 256 258 265 276 280 279 284 278 278 282 285 288 292 302 303 298 294 296 295 287 282 281 287 290 290 288 284 283 284 285 285 285 285 284 284 285 285
238 237 229 222 232 237 229 246 250 263 276 279 280 278 279 278 276 281 292 303 302 298 295 296 292 289 290 294 297 295 291 289 289 289 291 291 290 288 286 285 285 285 285 285
239 238 235 242 248 262 262 258 258 255 280 272 274 268 268 275 279 284 291 286 287 289 289 292 298 300 300 299 298 297 297 298 297 296 295 292 290 289 288 287 286 284 285 286
254 252 230 226 233 267 257 253 250 271 271 278 282 283 288 285 280 282 281 280 285 289 292 296 297 299 304 307 307 306 305 304 301 298 296 295 293 291 290 291 293 294 294 292
247 244 253 243 251 265 277 280 285 289 289 293 294 294 290 287 277 283 287 286 287 289 291 295 300 304 308 310 311 310 309 305 303 301 299 297 294 292 291 292 294 295 295 295
248 251 253 264 269 270 274 279 284 291 296 298 298 299 295 291 288 288 288 288 290 296 304 306 307 309 309 308 308 308 307 304 302 300 298 297 296 295 295 294 294 293 295 295
257 259 264 266 271 280 281 282 284 287 288 290 292 290 286 294 299 292 293 296 301 305 308 309 310 310 309 308 308 308 307 306 303 300 299 298 296 293 293 292 291 289 289 295
274 282 277 280 287 286 284 283 286 289 293 293 292 293 301 291 291 291 294 298 302 305 308 310 311 309 307 306 305 304 305 304 302 301 300 299 300 301 300 297 294 291 291 292
Height
3109 3115 3118 3123 3127 3130 3132 3135 3136 3140 3142 3143 3144 3144 3146 3147 3146 3147 3148 3148 3148 3147 3147 3146 3145 3144 3144 3142 3141 3140 3140 3140 3140 3139 3139 3138 3137 3136 3134 3131 3129 3127 3124 3121
3112 3115 3120 3123 3126 3129 3131 3133 3136 3138 3140 3142 3141 3141 3142 3141 3142 3143 3143 3143 3143 3142 3142 3141 3140 3140 3139 3138 3137 3137 3137 3137 3137 3137 3136 3135 3134 3133 3131 3128 3126 3124 3122 3118
3112 3117 3120 3123 3126 3129 3130 3132 3134 3137 3139 3140 3140 3138 3138 3138 3138 3138 3138 3139 3138 3138 3137 3137 3136 3136 3135 3135 3135 3134 3134 3134 3135 3134 3134 3133 3132 3130 3128 3126 3122 3120 3117 3115
3115 3117 3119 3122 3126 3129 3130 3131 3133 3136 3138 3139 3139 3136 3133 3133 3133 3133 3133 3135 3135 3134 3134 3134 3133 3133 3132 3132 3132 3132 3132 3132 3131 3131 3130 3129 3128 3126 3124 3122 3120 3117 3114 3111
3115 3116 3120 3122 3125 3128 3130 3131 3132 3134 3135 3137 3137 3137 3128 3128 3127 3127 3128 3129 3130 3130 3131 3130 3130 3129 3129 3129 3129 3129 3129 3129 3128 3128 3127 3126 3125 3123 3120 3118 3115 3112 3109 3106
3114 3116 3120 3122 3124 3127 3129 3131 3132 3132 3134 3134 3131 3132 3124 3123 3123 3124 3125 3126 3127 3127 3128 3127 3126 3126 3126 3126 3126 3126 3126 3125 3124 3124 3123 3122 3120 3119 3116 3114 3112 3108 3105 3102
3113 3115 3118 3121 3124 3126 3128 3130 3131 3135 3135 3130 3127 3128 3120 3120 3120 3121 3122 3123 3124 3124 3124 3124 3123 3123 3123 3123 3122 3122 3122 3121 3120 3119 3119 3117 3116 3114 3112 3110 3107 3104 3101 3098
3112 3117 3117 3119 3122 3124 3126 3127 3127 3133 3132 3125 3125 3120 3116 3116 3116 3117 3118 3120 3120 3119 3119 3119 3119 3120 3120 3120 3119 3119 3118 3117 3117 3116 3114 3113 3111 3110 3108 3105 3103 3100 3097 3094
3111 3112 3115 3117 3120 3123 3123 3125 3126 3126 3126 3125 3120 3116 3115 3114 3114 3115 3116 3117 3116 3115 3116 3117 3117 3117 3117 3116 3115 3114 3113 3112 3111 3109 3108 3107 3105 3104 3102 3100 3097 3095 3092 3089
3110 3112 3114 3116 3118 3120 3121 3123 3125 3124 3126 3125 3116 3114 3111 3112 3111 3113 3113 3114 3114 3113 3114 3114 3114 3114 3114 3113 3111 3109 3108 3107 3106 3104 3103 3101 3099 3097 3096 3093 3091 3089 3086 3084
3110 3111 3115 3115 3116 3117 3119 3120 3121 3122 3121 3120 3121 3111 3109 3108 3109 3110 3111 3111 3110 3110 3111 3111 3111 3110 3108 3107 3105 3103 3102 3101 3100 3098 3096 3095 3093 3091 3089 3086 3084 3082 3079 3076
3109 3110 3111 3113 3113 3113 3114 3115 3117 3118 3118 3117 3115 3110 3107 3107 3108 3108 3108 3107 3107 3108 3108 3107 3106 3104 3103 3101 3099 3097 3096 3095 3093 3091 3089 3088 3086 3084 3082 3079 3077 3074 3072 3069
3107 3108 3109 3110 3112 3110 3110 3111 3112 3114 3114 3112 3113 3106 3104 3104 3105 3105 3104 3104 3104 3104 3103 3101 3100 3098 3096 3095 3094 3092 3090 3088 3087 3084 3082 3080 3079 3076 3074 3071 3068 3066 3063 3061
3106 3106 3106 3106 3107 3107 3107 3107 3108 3109 3109 3105 3103 3102 3101 3101 3101 3100 3100 3100 3100 3098 3096 3094 3092 3089 3088 3087 3086 3084 3083 3081 3079 3077 3075 3073 3070 3068 3066 3063 3060 3058 3055 3052
3104 3104 3104 3104 3104 3103 3103 3104 3104 3102 3101 3100 3097 3098 3098 3097 3095 3094 3095 3094 3093 3091 3088 3086 3084 3082 3081 3080 3079 3077 3076 3074 3071 3068 3066 3064 3061 3059 3057 3054 3051 3047 3045 3041
3101 3100 3099 3099 3100 3098 3096 3096 3095 3094 3093 3090 3090 3090 3090 3089 3087 3088 3087 3086 3084 3083 3082 3081 3079 3077 3075 3073 3071 3069 3067 3064 3061 3059 3056 3054 3052 3049 3046 3043 3040 3036 3032 3029
3099 3098 3097 3096 3096 3095 3093 3087 3086 3086 3086 3086 3084 3084 3083 3081 3080 3079 3079 3078 3078 3077 3076 3074 3072 3070 3068 3066 3064 3062 3060 3057 3054 3051 3049 3046 3043 3040 3036 3032 3028 3023 3019 3016
3094 3095 3096 3094 3093 3094 3084 3083 3082 3082 3081 3080 3078 3078 3078 3077 3076 3075 3074 3073 3071 3070 3069 3068 3065 3063 3060 3057 3055 3053 3050 3048 3045 3042 3038 3033 3030 3026 3022 3018 3014 3011 3007 3003
3088 3090 3091 3091 3088 3082 3082 3080 3079 3077 3076 3076 3074 3073 3073 3073 3072 3071 3069 3068 3066 3064 3061 3059 3057 3055 3052 3049 3046 3043 3041 3037 3034 3030 3026 3023 3018 3013 3009 3005 3001 2998 2993 2989
3083 3084 3085 3084 3083 3078 3073 3073 3072 3072 3071 3071 3071 3069 3067 3066 3064 3064 3063 3060 3058 3056 3053 3050 3047 3045 3041 3039 3036 3033 3030 3026 3022 3018 3014 3010 3005 3000 2996 2991 2987 2983 2979 2975
3079 3079 3079 3080 3077 3069 3068 3068 3068 3070 3069 3065 3066 3067 3066 3064 3062 3058 3055 3053 3051 3048 3044 3040 3037 3035 3031 3028 3025 3021 3017 3014 3010 3007 3002 2996 2991 2987 2983 2979 2974 2971 2967 2963
3076 3076 3074 3074 3073 3067 3063 3063 3066 3064 3061 3061 3060 3060 3059 3057 3055 3052 3048 3044 3041 3039 3035 3031 3028 3026 3023 3019 3015 3011 3006 3001 2997 2992 2986 2982 2977 2972 2968 2964 2961 2958 2954 2949
3072 3071 3070 3070 3063 3061 3060 3059 3059 3056 3055 3054 3053 3051 3049 3047 3045 3043 3040 3037 3035 3032 3029 3025 3021 3018 3015 3011 3005 2998 2994 2988 2982 2977 2972 2968 2964 2960 2955 2951 2948 2944 2941 2936
3063 3064 3061 3060 3058 3057 3055 3053 3051 3049 3048 3046 3044 3042 3040 3038 3034 3032 3029 3028 3026 3023 3020 3016 3012 3008 3003 2998 2993 2988 2982 2976 2969 2964 2960 2955 2951 2948 2944 2940 2936 2932 2929 2925
3059 3057 3054 3051 3051 3049 3048 3046 3044 3041 3039 3037 3035 3032 3029 3028 3026 3024 3023 3022 3019 3015 3012 3008 3003 2998 2992 2987 2981 2975 2968 2963 2956 2952 2948 2944 2939 2936 2931 2928 2925 2920 2918 2914
3051 3050 3047 3041 3044 3040 3037 3037 3036 3034 3032 3029 3028 3024 3022 3022 3020 3018 3016 3014 3010 3006 3002 2996 2991 2985 2980 2975 2968 2962 2958 2952 2945 2939 2935 2932 2927 2923 2920 2915 2910 2909 2905 2901